Time,TemperatureF,DewpointF,PressureIn,WindDirection,WindDirectionDegrees,WindSpeedMPH,WindSpeedGustMPH,Humidity,HourlyPrecipIn,Conditions,Clouds,dailyrainin,SoftwareType,DateUTC
2013-01-05 00:00:00,29.2,21.0,29.83,WSW,240,2.0,2.0,71,0.00,,OVC050,0.00,VWS V14.01,2013-01-05 05:00:00,
2013-01-05 00:03:00,29.2,21.0,29.83,SW,225,0.0,3.0,71,0.00,,OVC050,0.00,VWS V14.01,2013-01-05 05:03:00,
2013-01-05 00:08:00,29.3,21.1,29.83,WNW,283,0.0,3.0,71,0.00,,OVC050,0.00,VWS V14.01,2013-01-05 05:08:00,
2013-01-05 00:13:00,29.4,20.8,29.83,West,273,0.0,3.0,70,0.00,,OVC050,0.00,VWS V14.01,2013-01-05 05:13:00,
2013-01-05 00:18:00,29.6,21.0,29.83,SSW,206,0.0,3.0,70,0.00,,OVC050,0.00,VWS V14.01,2013-01-05 05:18:00,
2013-01-05 00:23:00,29.7,21.1,29.83,SW,223,0.0,3.0,70,0.00,,OVC050,0.00,VWS V14.01,2013-01-05 05:23:00,
2013-01-05 00:28:00,30.0,21.1,29.83,SSW,205,0.0,5.0,69,0.00,,OVC050,0.00,VWS V14.01,2013-01-05 05:28:00,
2013-01-05 00:33:00,30.2,21.3,29.83,South,189,1.0,5.0,69,0.00,,OVC050,0.00,VWS V14.01,2013-01-05 05:33:00,
2013-01-05 00:38:00,30.3,21.0,29.83,SW,226,1.0,5.0,68,0.00,,OVC050,0.00,VWS V14.01,2013-01-05 05:38:00,
2013-01-05 00:43:00,30.4,21.1,29.83,SSW,206,0.0,5.0,68,0.00,,OVC050,0.00,VWS V14.01,2013-01-05 05:43:00,
2013-01-05 00:48:00,30.4,21.1,29.84,SW,217,0.0,5.0,68,0.00,,OVC050,0.00,VWS V14.01,2013-01-05 05:48:00,
2013-01-05 00:53:00,30.5,21.2,29.83,SSW,198,1.0,5.0,68,0.00,,OVC050,0.00,VWS V14.01,2013-01-05 05:53:00,
2013-01-05 00:58:00,30.5,21.2,29.83,SSW,209,1.0,5.0,68,0.00,,OVC050,0.00,VWS V14.01,2013-01-05 05:58:00,
2013-01-05 01:03:00,30.6,21.3,29.83,SW,221,1.0,3.0,68,0.00,,SCT048,0.00,VWS V14.01,2013-01-05 06:03:00,
2013-01-05 01:08:00,30.6,21.3,29.83,SW,221,1.0,3.0,68,0.00,,SCT048,0.00,VWS V14.01,2013-01-05 06:08:00,
2013-01-05 01:13:00,30.6,21.3,29.84,SW,226,2.0,3.0,68,0.00,,SCT048,0.00,VWS V14.01,2013-01-05 06:13:00,
2013-01-05 01:18:00,30.7,21.1,29.84,SSW,204,1.0,5.0,67,0.00,,SCT048,0.00,VWS V14.01,2013-01-05 06:18:00,
2013-01-05 01:23:00,30.7,21.1,29.84,West,260,2.0,5.0,67,0.00,,SCT048,0.00,VWS V14.01,2013-01-05 06:23:00,
2013-01-05 01:28:00,30.7,21.1,29.84,SW,223,2.0,5.0,67,0.00,,SCT048,0.00,VWS V14.01,2013-01-05 06:28:00,
2013-01-05 01:33:00,30.8,21.1,29.84,SW,217,4.0,5.0,67,0.00,,SCT048,0.00,VWS V14.01,2013-01-05 06:33:00,
2013-01-05 01:38:00,30.7,21.1,29.84,NW,313,3.0,5.0,67,0.00,,SCT048,0.00,VWS V14.01,2013-01-05 06:38:00,
2013-01-05 01:43:00,30.6,21.0,29.84,SW,227,3.0,7.0,67,0.00,,SCT048,0.00,VWS V14.01,2013-01-05 06:43:00,
2013-01-05 01:48:00,30.8,21.1,29.84,SE,133,4.0,8.0,67,0.00,,SCT048,0.00,VWS V14.01,2013-01-05 06:48:00,
2013-01-05 01:53:00,31.0,21.0,29.85,South,191,2.0,8.0,66,0.00,,SCT048,0.00,VWS V14.01,2013-01-05 06:53:00,
2013-01-05 01:58:00,30.9,20.9,29.85,SW,226,3.0,8.0,66,0.00,,SCT048,0.00,VWS V14.01,2013-01-05 06:58:00,
2013-01-05 02:03:00,30.9,21.2,29.85,SW,218,2.0,3.0,67,0.00,,OVC046,0.00,VWS V14.01,2013-01-05 07:03:00,
2013-01-05 02:08:00,31.0,21.3,29.85,WSW,241,4.0,4.0,67,0.00,,OVC046,0.00,VWS V14.01,2013-01-05 07:08:00,
2013-01-05 02:13:00,31.2,21.5,29.86,West,263,1.0,4.0,67,0.00,,OVC046,0.00,VWS V14.01,2013-01-05 07:13:00,
2013-01-05 02:18:00,31.4,21.7,29.86,SSW,210,1.0,4.0,67,0.00,,OVC046,0.00,VWS V14.01,2013-01-05 07:18:00,
2013-01-05 02:23:00,31.8,21.8,29.86,SSW,213,1.0,9.0,66,0.00,,OVC046,0.00,VWS V14.01,2013-01-05 07:23:00,
2013-01-05 02:28:00,32.0,21.9,29.86,WNW,290,0.0,9.0,66,0.00,,OVC046,0.00,VWS V14.01,2013-01-05 07:28:00,
2013-01-05 02:33:00,32.5,22.4,29.86,SW,217,1.0,9.0,66,0.00,,OVC046,0.00,VWS V14.01,2013-01-05 07:33:00,
2013-01-05 02:38:00,32.7,22.2,29.86,WNW,283,6.0,9.0,65,0.00,,OVC046,0.00,VWS V14.01,2013-01-05 07:38:00,
2013-01-05 02:43:00,33.2,22.4,29.86,West,275,2.0,9.0,64,0.00,,OVC046,0.00,VWS V14.01,2013-01-05 07:43:00,
2013-01-05 02:48:00,33.5,22.6,29.86,WSW,238,2.0,9.0,64,0.00,,OVC046,0.00,VWS V14.01,2013-01-05 07:48:00,
2013-01-05 02:53:00,33.8,22.5,29.87,SSW,209,1.0,9.0,63,0.00,,OVC046,0.00,VWS V14.01,2013-01-05 07:53:00,
2013-01-05 02:58:00,33.9,22.6,29.87,WNW,283,2.0,9.0,63,0.00,,OVC046,0.00,VWS V14.01,2013-01-05 07:58:00,
2013-01-05 03:03:00,33.9,22.6,29.86,West,275,0.0,5.0,63,0.00,,OVC048,0.00,VWS V14.01,2013-01-05 08:03:00,
2013-01-05 03:08:00,33.9,22.6,29.87,WNW,287,4.0,9.0,63,0.00,,OVC048,0.00,VWS V14.01,2013-01-05 08:08:00,
2013-01-05 03:13:00,33.9,22.6,29.86,SSW,210,1.0,9.0,63,0.00,,OVC048,0.00,VWS V14.01,2013-01-05 08:13:00,
2013-01-05 03:18:00,33.6,22.7,29.87,WNW,288,1.0,9.0,64,0.00,,OVC048,0.00,VWS V14.01,2013-01-05 08:18:00,
2013-01-05 03:23:00,33.4,22.5,29.87,WNW,302,1.0,9.0,64,0.00,,OVC048,0.00,VWS V14.01,2013-01-05 08:23:00,
2013-01-05 03:28:00,33.3,22.5,29.87,WSW,252,1.0,9.0,64,0.00,,OVC048,0.00,VWS V14.01,2013-01-05 08:28:00,
2013-01-05 03:33:00,33.2,22.7,29.87,West,273,2.0,9.0,65,0.00,,OVC048,0.00,VWS V14.01,2013-01-05 08:33:00,
2013-01-05 03:38:00,33.0,22.5,29.87,SSW,211,1.0,9.0,65,0.00,,OVC048,0.00,VWS V14.01,2013-01-05 08:38:00,
2013-01-05 03:43:00,32.9,22.4,29.87,West,267,1.0,9.0,65,0.00,,OVC048,0.00,VWS V14.01,2013-01-05 08:43:00,
2013-01-05 03:48:00,32.8,22.7,29.88,WNW,284,3.0,9.0,66,0.00,,OVC048,0.00,VWS V14.01,2013-01-05 08:48:00,
2013-01-05 03:53:00,32.7,22.6,29.88,WSW,244,3.0,9.0,66,0.00,,OVC048,0.00,VWS V14.01,2013-01-05 08:53:00,
2013-01-05 03:58:00,32.7,23.0,29.88,West,281,3.0,9.0,67,0.00,,OVC048,0.00,VWS V14.01,2013-01-05 08:58:00,
2013-01-05 04:03:00,32.9,23.2,29.88,WNW,290,2.0,3.0,67,0.00,,OVC050,0.00,VWS V14.01,2013-01-05 09:03:00,
2013-01-05 04:08:00,33.0,22.9,29.89,SW,223,1.0,6.0,66,0.00,,OVC050,0.00,VWS V14.01,2013-01-05 09:08:00,
2013-01-05 04:13:00,33.1,23.4,29.89,WNW,292,0.0,6.0,67,0.00,,OVC050,0.00,VWS V14.01,2013-01-05 09:13:00,
2013-01-05 04:18:00,33.1,23.4,29.89,SW,221,1.0,6.0,67,0.00,,OVC050,0.00,VWS V14.01,2013-01-05 09:18:00,
2013-01-05 04:23:00,33.1,23.4,29.89,SSW,200,2.0,6.0,67,0.00,,OVC050,0.00,VWS V14.01,2013-01-05 09:23:00,
2013-01-05 04:28:00,33.1,23.4,29.89,SW,236,2.0,6.0,67,0.00,,OVC050,0.00,VWS V14.01,2013-01-05 09:28:00,
2013-01-05 04:33:00,33.1,23.4,29.90,SSE,159,1.0,6.0,67,0.00,,OVC050,0.00,VWS V14.01,2013-01-05 09:33:00,
2013-01-05 04:38:00,33.0,23.2,29.90,SSW,198,1.0,6.0,67,0.00,,OVC050,0.00,VWS V14.01,2013-01-05 09:38:00,
2013-01-05 04:43:00,32.9,23.2,29.90,WNW,296,1.0,7.0,67,0.00,,OVC050,0.00,VWS V14.01,2013-01-05 09:43:00,
2013-01-05 04:48:00,32.8,23.4,29.90,SSW,196,1.0,7.0,68,0.00,,OVC050,0.00,VWS V14.01,2013-01-05 09:48:00,
2013-01-05 04:53:00,32.6,23.2,29.90,SW,230,2.0,7.0,68,0.00,,OVC050,0.00,VWS V14.01,2013-01-05 09:53:00,
2013-01-05 04:58:00,32.5,23.1,29.91,SW,225,3.0,7.0,68,0.00,,OVC050,0.00,VWS V14.01,2013-01-05 09:58:00,
2013-01-05 05:03:00,32.4,23.0,29.91,WSW,247,1.0,4.0,68,0.00,,CLR,0.00,VWS V14.01,2013-01-05 10:03:00,
2013-01-05 05:08:00,32.5,23.1,29.91,SW,221,1.0,6.0,68,0.00,,CLR,0.00,VWS V14.01,2013-01-05 10:08:00,
2013-01-05 05:13:00,32.4,23.0,29.91,WSW,257,1.0,6.0,68,0.00,,CLR,0.00,VWS V14.01,2013-01-05 10:13:00,
2013-01-05 05:18:00,32.3,23.3,29.91,West,269,0.0,6.0,69,0.00,,CLR,0.00,VWS V14.01,2013-01-05 10:18:00,
2013-01-05 05:23:00,32.1,23.1,29.92,NW,325,1.0,6.0,69,0.00,,CLR,0.00,VWS V14.01,2013-01-05 10:23:00,
2013-01-05 05:28:00,32.0,23.0,29.92,WNW,283,2.0,6.0,69,0.00,,CLR,0.00,VWS V14.01,2013-01-05 10:28:00,
2013-01-05 05:33:00,32.0,23.0,29.92,SW,227,1.0,6.0,69,0.00,,CLR,0.00,VWS V14.01,2013-01-05 10:33:00,
2013-01-05 05:38:00,31.9,22.9,29.92,SW,230,1.0,6.0,69,0.00,,CLR,0.00,VWS V14.01,2013-01-05 10:38:00,
2013-01-05 05:43:00,31.8,23.1,29.93,SSW,206,1.0,6.0,70,0.00,,CLR,0.00,VWS V14.01,2013-01-05 10:43:00,
2013-01-05 05:48:00,31.8,23.1,29.92,WSW,242,1.0,6.0,70,0.00,,CLR,0.00,VWS V14.01,2013-01-05 10:48:00,
2013-01-05 05:53:00,31.8,23.1,29.93,WSW,256,2.0,6.0,70,0.00,,CLR,0.00,VWS V14.01,2013-01-05 10:53:00,
2013-01-05 05:58:00,31.8,23.1,29.93,SW,227,0.0,6.0,70,0.00,,CLR,0.00,VWS V14.01,2013-01-05 10:58:00,
2013-01-05 06:03:00,31.8,23.1,29.93,SSW,210,4.0,4.0,70,0.00,,OVC060,0.00,VWS V14.01,2013-01-05 11:03:00,
2013-01-05 06:08:00,32.0,23.3,29.94,WSW,238,1.0,6.0,70,0.00,,OVC060,0.00,VWS V14.01,2013-01-05 11:08:00,
2013-01-05 06:13:00,32.0,23.3,29.94,SW,233,0.0,6.0,70,0.00,,OVC060,0.00,VWS V14.01,2013-01-05 11:13:00,
2013-01-05 06:18:00,31.8,23.1,29.94,West,265,2.0,6.0,70,0.00,,OVC060,0.00,VWS V14.01,2013-01-05 11:18:00,
2013-01-05 06:23:00,31.7,23.0,29.95,SW,225,1.0,6.0,70,0.00,,OVC060,0.00,VWS V14.01,2013-01-05 11:23:00,
2013-01-05 06:28:00,31.7,23.0,29.95,WNW,285,0.0,6.0,70,0.00,,OVC060,0.00,VWS V14.01,2013-01-05 11:28:00,
2013-01-05 06:33:00,31.7,23.0,29.95,WSW,258,4.0,6.0,70,0.00,,OVC060,0.00,VWS V14.01,2013-01-05 11:33:00,
2013-01-05 06:38:00,31.7,23.0,29.96,WSW,244,2.0,6.0,70,0.00,,OVC060,0.00,VWS V14.01,2013-01-05 11:38:00,
2013-01-05 06:43:00,31.7,23.0,29.96,West,277,2.0,6.0,70,0.00,,OVC060,0.00,VWS V14.01,2013-01-05 11:43:00,
2013-01-05 06:48:00,31.6,23.0,29.96,WNW,302,1.0,6.0,70,0.00,,OVC060,0.00,VWS V14.01,2013-01-05 11:48:00,
2013-01-05 06:53:00,31.6,23.0,29.97,SW,234,2.0,6.0,70,0.00,,OVC060,0.00,VWS V14.01,2013-01-05 11:53:00,
2013-01-05 06:58:00,31.6,23.0,29.97,SW,233,1.0,6.0,70,0.00,,OVC060,0.00,VWS V14.01,2013-01-05 11:58:00,
2013-01-05 07:03:00,31.6,23.0,29.97,West,280,4.0,4.0,70,0.00,,CLR,0.00,VWS V14.01,2013-01-05 12:03:00,
2013-01-05 07:08:00,31.5,22.9,29.98,WSW,254,1.0,4.0,70,0.00,,CLR,0.00,VWS V14.01,2013-01-05 12:08:00,
2013-01-05 07:13:00,31.6,23.0,29.98,WNW,284,0.0,5.0,70,0.00,,CLR,0.00,VWS V14.01,2013-01-05 12:13:00,
2013-01-05 07:18:00,31.5,23.2,29.98,WNW,282,0.0,7.0,71,0.00,,CLR,0.00,VWS V14.01,2013-01-05 12:18:00,
2013-01-05 07:23:00,31.4,23.1,29.99,West,271,0.0,7.0,71,0.00,,CLR,0.00,VWS V14.01,2013-01-05 12:23:00,
2013-01-05 07:28:00,31.3,23.0,29.99,SW,221,0.0,7.0,71,0.00,,CLR,0.00,VWS V14.01,2013-01-05 12:28:00,
2013-01-05 07:33:00,31.3,23.0,29.99,SW,218,1.0,7.0,71,0.00,,CLR,0.00,VWS V14.01,2013-01-05 12:33:00,
2013-01-05 07:38:00,31.2,22.9,30.00,SW,226,0.0,7.0,71,0.00,,CLR,0.00,VWS V14.01,2013-01-05 12:38:00,
2013-01-05 07:43:00,31.3,23.0,30.00,SW,214,0.0,7.0,71,0.00,,CLR,0.00,VWS V14.01,2013-01-05 12:43:00,
2013-01-05 07:48:00,31.4,23.1,30.00,SW,227,0.0,7.0,71,0.00,,CLR,0.00,VWS V14.01,2013-01-05 12:48:00,
2013-01-05 07:53:00,31.5,22.9,30.00,SSW,207,1.0,7.0,70,0.00,,CLR,0.00,VWS V14.01,2013-01-05 12:53:00,
2013-01-05 07:58:00,31.6,23.0,30.01,SSW,210,0.0,7.0,70,0.00,,CLR,0.00,VWS V14.01,2013-01-05 12:58:00,
2013-01-05 08:03:00,31.7,23.0,30.01,SW,221,1.0,2.0,70,0.00,,CLR,0.00,VWS V14.01,2013-01-05 13:03:00,
2013-01-05 08:08:00,31.9,23.2,30.02,SW,230,0.0,2.0,70,0.00,,CLR,0.00,VWS V14.01,2013-01-05 13:08:00,
2013-01-05 08:13:00,32.1,23.1,30.02,West,265,0.0,3.0,69,0.00,,CLR,0.00,VWS V14.01,2013-01-05 13:13:00,
2013-01-05 08:18:00,32.5,23.5,30.03,SSW,202,1.0,5.0,69,0.00,,CLR,0.00,VWS V14.01,2013-01-05 13:18:00,
2013-01-05 08:23:00,32.8,23.4,30.02,SSW,205,2.0,5.0,68,0.00,,CLR,0.00,VWS V14.01,2013-01-05 13:23:00,
2013-01-05 08:28:00,33.1,23.7,30.03,SSW,209,2.0,5.0,68,0.00,,CLR,0.00,VWS V14.01,2013-01-05 13:28:00,
2013-01-05 08:33:00,33.3,23.5,30.03,West,264,2.0,5.0,67,0.00,,CLR,0.00,VWS V14.01,2013-01-05 13:33:00,
2013-01-05 08:38:00,33.7,23.9,30.03,WSW,248,4.0,5.0,67,0.00,,CLR,0.00,VWS V14.01,2013-01-05 13:38:00,
2013-01-05 08:43:00,34.0,23.9,30.04,SW,233,2.0,5.0,66,0.00,,CLR,0.00,VWS V14.01,2013-01-05 13:43:00,
2013-01-05 08:48:00,34.3,24.1,30.04,West,263,2.0,5.0,66,0.00,,CLR,0.00,VWS V14.01,2013-01-05 13:48:00,
2013-01-05 08:53:00,34.5,24.0,30.04,SSW,213,0.0,8.0,65,0.00,,CLR,0.00,VWS V14.01,2013-01-05 13:53:00,
2013-01-05 08:58:00,34.8,24.2,30.05,WNW,295,1.0,8.0,65,0.00,,CLR,0.00,VWS V14.01,2013-01-05 13:58:00,
2013-01-05 09:03:00,35.1,24.2,30.05,WSW,248,1.0,4.0,64,0.00,,FEW050,0.00,VWS V14.01,2013-01-05 14:03:00,
2013-01-05 09:08:00,35.5,24.5,30.06,West,269,2.0,4.0,64,0.00,,FEW050,0.00,VWS V14.01,2013-01-05 14:08:00,
2013-01-05 09:13:00,35.9,24.5,30.06,SW,221,3.0,4.0,63,0.00,,FEW050,0.00,VWS V14.01,2013-01-05 14:13:00,
2013-01-05 09:18:00,36.3,24.5,30.06,WSW,240,2.0,5.0,62,0.00,,FEW050,0.00,VWS V14.01,2013-01-05 14:18:00,
2013-01-05 09:23:00,36.5,24.7,30.06,West,280,3.0,8.0,62,0.00,,FEW050,0.00,VWS V14.01,2013-01-05 14:23:00,
2013-01-05 09:28:00,36.6,24.4,30.07,WNW,303,4.0,8.0,61,0.00,,FEW050,0.00,VWS V14.01,2013-01-05 14:28:00,
2013-01-05 09:33:00,36.7,24.9,30.08,SSW,207,1.0,8.0,62,0.00,,FEW050,0.00,VWS V14.01,2013-01-05 14:33:00,
2013-01-05 09:38:00,36.9,25.1,30.09,WNW,294,3.0,8.0,62,0.00,,FEW050,0.00,VWS V14.01,2013-01-05 14:38:00,
2013-01-05 09:43:00,37.1,24.9,30.09,SW,223,1.0,8.0,61,0.00,,FEW050,0.00,VWS V14.01,2013-01-05 14:43:00,
2013-01-05 09:48:00,37.3,24.7,30.09,WNW,294,2.0,8.0,60,0.00,,FEW050,0.00,VWS V14.01,2013-01-05 14:48:00,
2013-01-05 09:53:00,37.7,25.1,30.10,WNW,294,1.0,8.0,60,0.00,,FEW050,0.00,VWS V14.01,2013-01-05 14:53:00,
2013-01-05 09:58:00,38.1,24.6,30.10,NW,310,4.0,9.0,58,0.00,,FEW050,0.00,VWS V14.01,2013-01-05 14:58:00,
2013-01-05 10:03:00,38.4,24.5,30.10,WNW,287,2.0,9.0,57,0.00,,CLR,0.00,VWS V14.01,2013-01-05 15:03:00,
2013-01-05 10:08:00,38.8,24.5,30.10,West,265,2.0,10.0,56,0.00,,CLR,0.00,VWS V14.01,2013-01-05 15:08:00,
2013-01-05 10:13:00,38.8,24.5,30.10,WNW,295,1.0,10.0,56,0.00,,CLR,0.00,VWS V14.01,2013-01-05 15:13:00,
2013-01-05 10:18:00,38.8,24.0,30.10,WNW,283,4.0,10.0,55,0.00,,CLR,0.00,VWS V14.01,2013-01-05 15:18:00,
2013-01-05 10:23:00,38.6,23.8,30.10,NW,321,4.0,11.0,55,0.00,,CLR,0.00,VWS V14.01,2013-01-05 15:23:00,
2013-01-05 10:28:00,38.5,23.8,30.10,WNW,292,5.0,11.0,55,0.00,,CLR,0.00,VWS V14.01,2013-01-05 15:28:00,
2013-01-05 10:33:00,38.5,24.2,30.10,WNW,296,3.0,11.0,56,0.00,,CLR,0.00,VWS V14.01,2013-01-05 15:33:00,
2013-01-05 10:38:00,38.3,23.6,30.10,West,273,3.0,11.0,55,0.00,,CLR,0.00,VWS V14.01,2013-01-05 15:38:00,
2013-01-05 10:43:00,38.3,23.6,30.10,WNW,298,1.0,11.0,55,0.00,,CLR,0.00,VWS V14.01,2013-01-05 15:43:00,
2013-01-05 10:48:00,38.4,23.2,30.10,WNW,290,5.0,11.0,54,0.00,,CLR,0.00,VWS V14.01,2013-01-05 15:48:00,
2013-01-05 10:53:00,38.7,22.1,30.10,WNW,283,6.0,11.0,51,0.00,,CLR,0.00,VWS V14.01,2013-01-05 15:53:00,
2013-01-05 10:58:00,38.9,21.9,30.10,NNW,336,7.0,11.0,50,0.00,,CLR,0.00,VWS V14.01,2013-01-05 15:58:00,
2013-01-05 11:03:00,39.1,21.1,30.10,SSW,210,4.0,10.0,48,0.00,,BKN055,0.00,VWS V14.01,2013-01-05 16:03:00,
2013-01-05 11:08:00,39.3,21.3,30.11,West,263,5.0,10.0,48,0.00,,BKN055,0.00,VWS V14.01,2013-01-05 16:08:00,
2013-01-05 11:13:00,39.2,20.7,30.11,West,277,3.0,11.0,47,0.00,,BKN055,0.00,VWS V14.01,2013-01-05 16:13:00,
2013-01-05 11:18:00,39.4,20.9,30.11,NNW,348,4.0,11.0,47,0.00,,BKN055,0.00,VWS V14.01,2013-01-05 16:18:00,
2013-01-05 11:23:00,39.5,20.5,30.11,SSW,213,1.0,11.0,46,0.00,,BKN055,0.00,VWS V14.01,2013-01-05 16:23:00,
2013-01-05 11:28:00,39.6,20.5,30.11,WNW,298,6.0,11.0,46,0.00,,BKN055,0.00,VWS V14.01,2013-01-05 16:28:00,
2013-01-05 11:33:00,39.9,20.8,30.11,WNW,298,3.0,11.0,46,0.00,,BKN055,0.00,VWS V14.01,2013-01-05 16:33:00,
2013-01-05 11:38:00,40.2,20.0,30.11,WNW,303,6.0,11.0,44,0.00,,BKN055,0.00,VWS V14.01,2013-01-05 16:38:00,
2013-01-05 11:43:00,39.9,19.8,30.11,NW,309,3.0,11.0,44,0.00,,BKN055,0.00,VWS V14.01,2013-01-05 16:43:00,
2013-01-05 11:48:00,39.9,19.8,30.11,NW,322,3.0,11.0,44,0.00,,BKN055,0.00,VWS V14.01,2013-01-05 16:48:00,
2013-01-05 11:53:00,40.0,20.4,30.11,West,281,6.0,11.0,45,0.00,,BKN055,0.00,VWS V14.01,2013-01-05 16:53:00,
2013-01-05 11:58:00,40.0,19.9,30.11,West,275,4.0,11.0,44,0.00,,BKN055,0.00,VWS V14.01,2013-01-05 16:58:00,
2013-01-05 12:03:00,40.1,19.4,30.11,WNW,284,3.0,10.0,43,0.00,,SCT048,0.00,VWS V14.01,2013-01-05 17:03:00,
2013-01-05 12:08:00,40.3,19.6,30.11,WNW,296,3.0,13.0,43,0.00,,SCT048,0.00,VWS V14.01,2013-01-05 17:08:00,
2013-01-05 12:13:00,40.4,19.7,30.11,WNW,303,5.0,13.0,43,0.00,,SCT048,0.00,VWS V14.01,2013-01-05 17:13:00,
2013-01-05 12:18:00,40.3,19.0,30.11,WNW,299,5.0,13.0,42,0.00,,SCT048,0.00,VWS V14.01,2013-01-05 17:18:00,
2013-01-05 12:23:00,40.4,18.6,30.11,North,350,7.0,13.0,41,0.00,,SCT048,0.00,VWS V14.01,2013-01-05 17:23:00,
2013-01-05 12:28:00,40.5,19.2,30.11,WNW,294,4.0,13.0,42,0.00,,SCT048,0.00,VWS V14.01,2013-01-05 17:28:00,
2013-01-05 12:33:00,40.9,19.6,30.11,WNW,284,6.0,13.0,42,0.00,,SCT048,0.00,VWS V14.01,2013-01-05 17:33:00,
2013-01-05 12:38:00,41.0,19.1,30.11,South,188,1.0,13.0,41,0.00,,SCT048,0.00,VWS V14.01,2013-01-05 17:38:00,
2013-01-05 12:43:00,41.1,18.6,30.11,WNW,288,4.0,13.0,40,0.00,,SCT048,0.00,VWS V14.01,2013-01-05 17:43:00,
2013-01-05 12:48:00,41.3,19.4,30.11,WNW,286,3.0,13.0,41,0.00,,SCT048,0.00,VWS V14.01,2013-01-05 17:48:00,
2013-01-05 12:53:00,41.3,19.4,30.11,WSW,250,1.0,13.0,41,0.00,,SCT048,0.00,VWS V14.01,2013-01-05 17:53:00,
2013-01-05 12:58:00,41.3,19.4,30.12,WNW,287,6.0,13.0,41,0.00,,SCT048,0.00,VWS V14.01,2013-01-05 17:58:00,
2013-01-05 13:03:00,41.5,19.6,30.12,ENE,78,2.0,9.0,41,0.00,,BKN049,0.00,VWS V14.01,2013-01-05 18:03:00,
2013-01-05 13:08:00,41.6,19.1,30.12,NNW,330,7.0,10.0,40,0.00,,BKN049,0.00,VWS V14.01,2013-01-05 18:08:00,
2013-01-05 13:13:00,41.6,19.1,30.12,WNW,292,3.0,10.0,40,0.00,,BKN049,0.00,VWS V14.01,2013-01-05 18:13:00,
2013-01-05 13:18:00,41.6,19.1,30.12,NNW,344,7.0,10.0,40,0.00,,BKN049,0.00,VWS V14.01,2013-01-05 18:18:00,
2013-01-05 13:23:00,41.4,18.9,30.12,WNW,292,1.0,10.0,40,0.00,,BKN049,0.00,VWS V14.01,2013-01-05 18:23:00,
2013-01-05 13:28:00,41.4,19.5,30.11,WNW,298,4.0,13.0,41,0.00,,BKN049,0.00,VWS V14.01,2013-01-05 18:28:00,
2013-01-05 13:33:00,41.3,18.8,30.11,NW,306,4.0,13.0,40,0.00,,BKN049,0.00,VWS V14.01,2013-01-05 18:33:00,
2013-01-05 13:38:00,41.2,19.3,30.12,WSW,244,2.0,13.0,41,0.00,,BKN049,0.00,VWS V14.01,2013-01-05 18:38:00,
2013-01-05 13:43:00,41.3,18.8,30.12,WNW,299,3.0,13.0,40,0.00,,BKN049,0.00,VWS V14.01,2013-01-05 18:43:00,
2013-01-05 13:48:00,40.9,18.5,30.12,NNW,327,4.0,13.0,40,0.00,,BKN049,0.00,VWS V14.01,2013-01-05 18:48:00,
2013-01-05 13:53:00,40.5,18.7,30.12,West,280,1.0,13.0,41,0.00,,BKN049,0.00,VWS V14.01,2013-01-05 18:53:00,
2013-01-05 13:58:00,40.5,18.1,30.12,NNW,327,6.0,13.0,40,0.00,,BKN049,0.00,VWS V14.01,2013-01-05 18:58:00,
2013-01-05 14:03:00,40.2,17.8,30.12,West,259,2.0,10.0,40,0.00,,CLR,0.00,VWS V14.01,2013-01-05 19:03:00,
2013-01-05 14:08:00,40.3,17.9,30.12,WNW,296,2.0,10.0,40,0.00,,CLR,0.00,VWS V14.01,2013-01-05 19:08:00,
2013-01-05 14:13:00,40.3,17.3,30.12,West,261,2.0,10.0,39,0.00,,CLR,0.00,VWS V14.01,2013-01-05 19:13:00,
2013-01-05 14:18:00,40.1,17.1,30.13,NNE,15,2.0,10.0,39,0.00,,CLR,0.00,VWS V14.01,2013-01-05 19:18:00,
2013-01-05 14:23:00,40.0,17.1,30.13,NNW,343,2.0,10.0,39,0.00,,CLR,0.00,VWS V14.01,2013-01-05 19:23:00,
2013-01-05 14:28:00,39.7,16.8,30.12,WNW,290,2.0,10.0,39,0.00,,CLR,0.00,VWS V14.01,2013-01-05 19:28:00,
2013-01-05 14:33:00,39.6,16.7,30.12,NW,319,1.0,14.0,39,0.00,,CLR,0.00,VWS V14.01,2013-01-05 19:33:00,
2013-01-05 14:38:00,39.4,16.5,30.12,NNE,28,1.0,14.0,39,0.00,,CLR,0.00,VWS V14.01,2013-01-05 19:38:00,
2013-01-05 14:43:00,39.5,16.6,30.13,NNE,20,3.0,14.0,39,0.00,,CLR,0.00,VWS V14.01,2013-01-05 19:43:00,
2013-01-05 14:48:00,39.6,16.7,30.13,NNW,327,0.0,14.0,39,0.00,,CLR,0.00,VWS V14.01,2013-01-05 19:48:00,
2013-01-05 14:53:00,39.6,16.7,30.13,NW,310,1.0,14.0,39,0.00,,CLR,0.00,VWS V14.01,2013-01-05 19:53:00,
2013-01-05 14:58:00,39.4,16.5,30.14,WNW,294,2.0,14.0,39,0.00,,CLR,0.00,VWS V14.01,2013-01-05 19:58:00,
2013-01-05 15:03:00,39.3,16.4,30.14,WNW,286,4.0,6.0,39,0.00,,CLR,0.00,VWS V14.01,2013-01-05 20:03:00,
2013-01-05 15:08:00,39.3,17.0,30.14,WNW,288,2.0,6.0,40,0.00,,CLR,0.00,VWS V14.01,2013-01-05 20:08:00,
2013-01-05 15:13:00,39.2,16.3,30.14,NNE,26,6.0,9.0,39,0.00,,CLR,0.00,VWS V14.01,2013-01-05 20:13:00,
2013-01-05 15:18:00,39.1,16.8,30.14,WNW,298,1.0,9.0,40,0.00,,CLR,0.00,VWS V14.01,2013-01-05 20:18:00,
2013-01-05 15:23:00,39.1,16.8,30.14,NW,321,3.0,9.0,40,0.00,,CLR,0.00,VWS V14.01,2013-01-05 20:23:00,
2013-01-05 15:28:00,39.2,16.9,30.15,NNW,342,4.0,9.0,40,0.00,,CLR,0.00,VWS V14.01,2013-01-05 20:28:00,
2013-01-05 15:33:00,39.1,16.8,30.16,WNW,286,1.0,9.0,40,0.00,,CLR,0.00,VWS V14.01,2013-01-05 20:33:00,
2013-01-05 15:38:00,38.8,17.1,30.16,NW,313,2.0,9.0,41,0.00,,CLR,0.00,VWS V14.01,2013-01-05 20:38:00,
2013-01-05 15:43:00,38.6,17.5,30.16,WNW,294,3.0,9.0,42,0.00,,CLR,0.00,VWS V14.01,2013-01-05 20:43:00,
2013-01-05 15:48:00,38.4,17.3,30.15,NNW,330,2.0,9.0,42,0.00,,CLR,0.00,VWS V14.01,2013-01-05 20:48:00,
2013-01-05 15:53:00,38.1,17.0,30.16,North,350,1.0,9.0,42,0.00,,CLR,0.00,VWS V14.01,2013-01-05 20:53:00,
2013-01-05 15:58:00,37.9,16.9,30.16,NE,45,2.0,9.0,42,0.00,,CLR,0.00,VWS V14.01,2013-01-05 20:58:00,
2013-01-05 16:03:00,37.6,17.1,30.16,NNE,30,1.0,2.0,43,0.00,,CLR,0.00,VWS V14.01,2013-01-05 21:03:00,
2013-01-05 16:08:00,37.3,17.4,30.16,NNW,348,2.0,2.0,44,0.00,,CLR,0.00,VWS V14.01,2013-01-05 21:08:00,
2013-01-05 16:13:00,37.1,16.7,30.17,NNE,12,2.0,4.0,43,0.00,,CLR,0.00,VWS V14.01,2013-01-05 21:13:00,
2013-01-05 16:18:00,37.0,17.1,30.18,NW,319,0.0,4.0,44,0.00,,CLR,0.00,VWS V14.01,2013-01-05 21:18:00,
2013-01-05 16:23:00,36.7,16.9,30.18,NW,319,0.0,4.0,44,0.00,,CLR,0.00,VWS V14.01,2013-01-05 21:23:00,
2013-01-05 16:28:00,36.3,17.0,30.18,NW,319,0.0,4.0,45,0.00,,CLR,0.00,VWS V14.01,2013-01-05 21:28:00,
2013-01-05 16:33:00,35.8,17.6,30.18,NW,319,0.0,4.0,47,0.00,,CLR,0.00,VWS V14.01,2013-01-05 21:33:00,
2013-01-05 16:38:00,35.6,16.9,30.19,North,355,0.0,4.0,46,0.00,,CLR,0.00,VWS V14.01,2013-01-05 21:38:00,
2013-01-05 16:43:00,35.1,16.4,30.19,North,360,0.0,4.0,46,0.00,,CLR,0.00,VWS V14.01,2013-01-05 21:43:00,
2013-01-05 16:48:00,34.6,16.5,30.19,North,360,0.0,4.0,47,0.00,,CLR,0.00,VWS V14.01,2013-01-05 21:48:00,
2013-01-05 16:53:00,34.0,17.3,30.19,North,360,0.0,4.0,50,0.00,,CLR,0.00,VWS V14.01,2013-01-05 21:53:00,
2013-01-05 16:58:00,33.7,16.6,30.20,North,360,0.0,4.0,49,0.00,,CLR,0.00,VWS V14.01,2013-01-05 21:58:00,
2013-01-05 17:03:00,33.5,16.9,30.20,North,355,0.0,1.0,50,0.00,,CLR,0.00,VWS V14.01,2013-01-05 22:03:00,
2013-01-05 17:08:00,33.4,16.3,30.20,North,355,0.0,1.0,49,0.00,,CLR,0.00,VWS V14.01,2013-01-05 22:08:00,
2013-01-05 17:13:00,33.3,16.2,30.20,North,360,0.0,1.0,49,0.00,,CLR,0.00,VWS V14.01,2013-01-05 22:13:00,
2013-01-05 17:18:00,32.7,16.6,30.20,North,360,0.0,1.0,51,0.00,,CLR,0.00,VWS V14.01,2013-01-05 22:18:00,
2013-01-05 17:23:00,32.0,16.4,30.20,North,360,0.0,1.0,52,0.00,,CLR,0.00,VWS V14.01,2013-01-05 22:23:00,
2013-01-05 17:28:00,31.6,16.9,30.20,North,360,0.0,1.0,54,0.00,,CLR,0.00,VWS V14.01,2013-01-05 22:28:00,
2013-01-05 17:33:00,31.0,17.6,30.20,North,360,0.0,1.0,57,0.00,,CLR,0.00,VWS V14.01,2013-01-05 22:33:00,
2013-01-05 17:38:00,30.4,17.4,30.20,North,360,0.0,1.0,58,0.00,,CLR,0.00,VWS V14.01,2013-01-05 22:38:00,
2013-01-05 17:43:00,30.0,17.4,30.21,SE,144,1.0,1.0,59,0.00,,CLR,0.00,VWS V14.01,2013-01-05 22:43:00,
2013-01-05 17:48:00,29.4,16.9,30.21,SE,135,0.0,2.0,59,0.00,,CLR,0.00,VWS V14.01,2013-01-05 22:48:00,
2013-01-05 17:53:00,29.1,16.6,30.21,SE,134,0.0,2.0,59,0.00,,CLR,0.00,VWS V14.01,2013-01-05 22:53:00,
2013-01-05 17:58:00,29.0,16.5,30.21,SSE,165,0.0,2.0,59,0.00,,CLR,0.00,VWS V14.01,2013-01-05 22:58:00,
2013-01-05 18:03:00,28.9,17.9,30.22,SSE,165,0.0,0.0,63,0.00,,CLR,0.00,VWS V14.01,2013-01-05 23:03:00,
2013-01-05 18:08:00,28.5,17.9,30.22,SSE,165,0.0,0.0,64,0.00,,CLR,0.00,VWS V14.01,2013-01-05 23:08:00,
2013-01-05 18:13:00,28.2,17.6,30.22,SSE,165,0.0,0.0,64,0.00,,CLR,0.00,VWS V14.01,2013-01-05 23:13:00,
2013-01-05 18:18:00,27.8,17.2,30.22,SSE,165,0.0,0.0,64,0.00,,CLR,0.00,VWS V14.01,2013-01-05 23:18:00,
2013-01-05 18:23:00,27.5,17.3,30.22,SSE,165,0.0,0.0,65,0.00,,CLR,0.00,VWS V14.01,2013-01-05 23:23:00,
2013-01-05 18:28:00,27.1,16.6,30.23,SSE,165,0.0,0.0,64,0.00,,CLR,0.00,VWS V14.01,2013-01-05 23:28:00,
2013-01-05 18:33:00,26.7,16.9,30.23,SSE,165,0.0,0.0,66,0.00,,CLR,0.00,VWS V14.01,2013-01-05 23:33:00,
2013-01-05 18:38:00,26.5,17.0,30.23,SSE,166,0.0,0.0,67,0.00,,CLR,0.00,VWS V14.01,2013-01-05 23:38:00,
2013-01-05 18:43:00,26.6,18.1,30.23,SSW,197,0.0,0.0,70,0.00,,CLR,0.00,VWS V14.01,2013-01-05 23:43:00,
2013-01-05 18:48:00,26.3,17.9,30.23,SSW,198,0.0,0.0,70,0.00,,CLR,0.00,VWS V14.01,2013-01-05 23:48:00,
2013-01-05 18:53:00,26.1,18.0,30.24,SSE,152,0.0,1.0,71,0.00,,CLR,0.00,VWS V14.01,2013-01-05 23:53:00,
2013-01-05 18:58:00,25.9,17.8,30.24,SSE,152,0.0,1.0,71,0.00,,CLR,0.00,VWS V14.01,2013-01-05 23:58:00,
2013-01-05 19:03:00,25.9,18.1,30.24,SSE,153,0.0,0.0,72,0.00,,CLR,0.00,VWS V14.01,2013-01-06 00:03:00,
2013-01-05 19:08:00,25.7,18.3,30.25,SE,140,1.0,1.0,73,0.00,,CLR,0.00,VWS V14.01,2013-01-06 00:08:00,
2013-01-05 19:13:00,25.8,18.0,30.25,SE,140,0.0,1.0,72,0.00,,CLR,0.00,VWS V14.01,2013-01-06 00:13:00,
2013-01-05 19:18:00,25.6,17.8,30.24,SE,140,0.0,1.0,72,0.00,,CLR,0.00,VWS V14.01,2013-01-06 00:18:00,
2013-01-05 19:23:00,25.3,17.9,30.24,SE,140,0.0,1.0,73,0.00,,CLR,0.00,VWS V14.01,2013-01-06 00:23:00,
2013-01-05 19:28:00,25.2,17.8,30.24,SE,139,0.0,1.0,73,0.00,,CLR,0.00,VWS V14.01,2013-01-06 00:28:00,
2013-01-05 19:33:00,25.0,17.6,30.24,SE,139,0.0,1.0,73,0.00,,CLR,0.00,VWS V14.01,2013-01-06 00:33:00,
2013-01-05 19:38:00,24.8,17.4,30.24,SE,140,0.0,1.0,73,0.00,,CLR,0.00,VWS V14.01,2013-01-06 00:38:00,
2013-01-05 19:43:00,24.8,17.7,30.24,SE,140,0.0,1.0,74,0.00,,CLR,0.00,VWS V14.01,2013-01-06 00:43:00,
2013-01-05 19:48:00,24.6,17.5,30.24,SE,140,0.0,1.0,74,0.00,,CLR,0.00,VWS V14.01,2013-01-06 00:48:00,
2013-01-05 19:53:00,24.5,17.4,30.24,SE,140,0.0,1.0,74,0.00,,CLR,0.00,VWS V14.01,2013-01-06 00:53:00,
2013-01-05 19:58:00,24.4,17.0,30.23,SE,140,0.0,1.0,73,0.00,,CLR,0.00,VWS V14.01,2013-01-06 00:58:00,
2013-01-05 20:03:00,24.3,17.2,30.23,SE,140,0.0,0.0,74,0.00,,CLR,0.00,VWS V14.01,2013-01-06 01:03:00,
2013-01-05 20:08:00,24.2,17.7,30.24,SE,140,0.0,0.0,76,0.00,,CLR,0.00,VWS V14.01,2013-01-06 01:08:00,
2013-01-05 20:13:00,24.0,17.5,30.23,West,261,1.0,1.0,76,0.00,,CLR,0.00,VWS V14.01,2013-01-06 01:13:00,
2013-01-05 20:18:00,23.9,17.8,30.23,SE,130,1.0,1.0,77,0.00,,CLR,0.00,VWS V14.01,2013-01-06 01:18:00,
2013-01-05 20:23:00,24.0,17.5,30.23,SE,144,0.0,2.0,76,0.00,,CLR,0.00,VWS V14.01,2013-01-06 01:23:00,
2013-01-05 20:28:00,23.9,17.8,30.23,SE,144,0.0,2.0,77,0.00,,CLR,0.00,VWS V14.01,2013-01-06 01:28:00,
2013-01-05 20:33:00,23.9,18.0,30.23,SSE,165,0.0,2.0,78,0.00,,CLR,0.00,VWS V14.01,2013-01-06 01:33:00,
2013-01-05 20:38:00,23.9,18.4,30.23,SSE,165,0.0,2.0,79,0.00,,CLR,0.00,VWS V14.01,2013-01-06 01:38:00,
2013-01-05 20:43:00,23.9,18.4,30.23,SSE,156,0.0,2.0,79,0.00,,CLR,0.00,VWS V14.01,2013-01-06 01:43:00,
2013-01-05 20:48:00,23.8,18.0,30.23,SE,146,0.0,2.0,78,0.00,,CLR,0.00,VWS V14.01,2013-01-06 01:48:00,
2013-01-05 20:53:00,23.7,18.1,30.22,WNW,298,1.0,2.0,79,0.00,,CLR,0.00,VWS V14.01,2013-01-06 01:53:00,
2013-01-05 20:58:00,23.7,18.1,30.23,SE,140,1.0,2.0,79,0.00,,CLR,0.00,VWS V14.01,2013-01-06 01:58:00,
2013-01-05 21:03:00,23.5,18.0,30.23,SE,144,0.0,1.0,79,0.00,,CLR,0.00,VWS V14.01,2013-01-06 02:03:00,
2013-01-05 21:08:00,23.3,17.8,30.23,SE,144,0.0,1.0,79,0.00,,CLR,0.00,VWS V14.01,2013-01-06 02:08:00,
2013-01-05 21:13:00,23.2,17.7,30.22,SE,144,0.0,1.0,79,0.00,,CLR,0.00,VWS V14.01,2013-01-06 02:13:00,
2013-01-05 21:18:00,23.2,17.7,30.22,SE,144,0.0,1.0,79,0.00,,CLR,0.00,VWS V14.01,2013-01-06 02:18:00,
2013-01-05 21:23:00,23.2,18.0,30.23,SSW,202,0.0,1.0,80,0.00,,CLR,0.00,VWS V14.01,2013-01-06 02:23:00,
2013-01-05 21:28:00,22.9,17.7,30.24,SE,133,0.0,1.0,80,0.00,,CLR,0.00,VWS V14.01,2013-01-06 02:28:00,
2013-01-05 21:33:00,22.6,17.4,30.24,SE,133,0.0,1.0,80,0.00,,CLR,0.00,VWS V14.01,2013-01-06 02:33:00,
2013-01-05 21:38:00,22.9,17.7,30.23,SSE,160,0.0,1.0,80,0.00,,CLR,0.00,VWS V14.01,2013-01-06 02:38:00,
2013-01-05 21:43:00,22.7,17.5,30.23,SSE,160,0.0,1.0,80,0.00,,CLR,0.00,VWS V14.01,2013-01-06 02:43:00,
2013-01-05 21:48:00,22.3,17.4,30.23,SSE,160,0.0,1.0,81,0.00,,CLR,0.00,VWS V14.01,2013-01-06 02:48:00,
2013-01-05 21:53:00,22.2,17.3,30.22,SSE,160,0.0,1.0,81,0.00,,CLR,0.00,VWS V14.01,2013-01-06 02:53:00,
2013-01-05 21:58:00,22.0,17.4,30.23,SE,134,0.0,1.0,82,0.00,,CLR,0.00,VWS V14.01,2013-01-06 02:58:00,
2013-01-05 22:03:00,21.9,17.3,30.22,West,265,1.0,1.0,82,0.00,,CLR,0.00,VWS V14.01,2013-01-06 03:03:00,
2013-01-05 22:08:00,21.7,17.1,30.22,SE,136,1.0,1.0,82,0.00,,CLR,0.00,VWS V14.01,2013-01-06 03:08:00,
2013-01-05 22:13:00,21.6,17.0,30.22,SE,136,0.0,1.0,82,0.00,,CLR,0.00,VWS V14.01,2013-01-06 03:13:00,
2013-01-05 22:18:00,21.3,17.0,30.22,WNW,291,0.0,1.0,83,0.00,,CLR,0.00,VWS V14.01,2013-01-06 03:18:00,
2013-01-05 22:23:00,21.3,17.0,30.22,WNW,291,0.0,1.0,83,0.00,,CLR,0.00,VWS V14.01,2013-01-06 03:23:00,
2013-01-05 22:28:00,21.1,16.8,30.23,WNW,291,0.0,1.0,83,0.00,,CLR,0.00,VWS V14.01,2013-01-06 03:28:00,
2013-01-05 22:33:00,20.8,16.5,30.23,WNW,291,0.0,1.0,83,0.00,,CLR,0.00,VWS V14.01,2013-01-06 03:33:00,
2013-01-05 22:38:00,20.7,16.6,30.23,WNW,291,0.0,1.0,84,0.00,,CLR,0.00,VWS V14.01,2013-01-06 03:38:00,
2013-01-05 22:43:00,20.7,16.6,30.24,WNW,291,0.0,1.0,84,0.00,,CLR,0.00,VWS V14.01,2013-01-06 03:43:00,
2013-01-05 22:48:00,20.7,16.9,30.24,WNW,291,0.0,1.0,85,0.00,,CLR,0.00,VWS V14.01,2013-01-06 03:48:00,
2013-01-05 22:53:00,20.7,16.9,30.24,WNW,291,0.0,1.0,85,0.00,,CLR,0.00,VWS V14.01,2013-01-06 03:53:00,
2013-01-05 22:58:00,20.7,16.9,30.23,WNW,291,0.0,1.0,85,0.00,,CLR,0.00,VWS V14.01,2013-01-06 03:58:00,
2013-01-05 23:03:00,20.5,16.7,30.23,WNW,291,0.0,0.0,85,0.00,,CLR,0.00,VWS V14.01,2013-01-06 04:03:00,
2013-01-05 23:08:00,20.6,16.8,30.22,NNW,348,0.0,1.0,85,0.00,,CLR,0.00,VWS V14.01,2013-01-06 04:08:00,
2013-01-05 23:13:00,20.5,16.7,30.21,ESE,120,0.0,1.0,85,0.00,,CLR,0.00,VWS V14.01,2013-01-06 04:13:00,
2013-01-05 23:18:00,20.4,16.6,30.21,ESE,119,0.0,1.0,85,0.00,,CLR,0.00,VWS V14.01,2013-01-06 04:18:00,
2013-01-05 23:23:00,20.4,16.6,30.20,ESE,119,0.0,1.0,85,0.00,,CLR,0.00,VWS V14.01,2013-01-06 04:23:00,
2013-01-05 23:28:00,20.4,16.6,30.20,ESE,120,0.0,1.0,85,0.00,,CLR,0.00,VWS V14.01,2013-01-06 04:28:00,
2013-01-05 23:33:00,20.5,16.7,30.20,ESE,120,0.0,1.0,85,0.00,,CLR,0.00,VWS V14.01,2013-01-06 04:33:00,
2013-01-05 23:38:00,20.6,16.8,30.19,SE,140,0.0,1.0,85,0.00,,CLR,0.00,VWS V14.01,2013-01-06 04:38:00,
2013-01-05 23:43:00,20.7,16.9,30.20,SE,140,0.0,1.0,85,0.00,,CLR,0.00,VWS V14.01,2013-01-06 04:43:00,
2013-01-05 23:48:00,20.7,16.9,30.20,SE,140,0.0,1.0,85,0.00,,CLR,0.00,VWS V14.01,2013-01-06 04:48:00,
2013-01-05 23:53:00,20.7,16.9,30.19,SE,140,0.0,1.0,85,0.00,,CLR,0.00,VWS V14.01,2013-01-06 04:53:00,
2013-01-05 23:58:00,20.7,16.9,30.19,SE,140,0.0,1.0,85,0.00,,CLR,0.00,VWS V14.01,2013-01-06 04:58:00,